Temp
-17 -17 -17 -17 -18 -19 -19 -19 -20 -20 -21 -21 -22 -22 -22 -22 -22 -21 -22 -22 -23 -24 -25 -26 -27 -28 -29 -31 -31 -31 -31 -32 -32 -32 -31 -31 -32 -31
-17 -17 -18 -18 -18 -18 -19 -20 -20 -20 -20 -21 -22 -22 -22 -22 -22 -22 -23 -23 -25 -26 -27 -28 -29 -31 -31 -32 -32 -31 -32 -32 -32 -32 -32 -32 -32 -32
-17 -18 -18 -18 -18 -19 -20 -20 -20 -21 -21 -21 -22 -22 -22 -22 -23 -24 -24 -25 -26 -27 -28 -29 -30 -32 -32 -32 -32 -32 -33 -33 -33 -33 -33 -33 -33 -33
-17 -18 -18 -19 -19 -20 -21 -21 -21 -22 -21 -21 -22 -22 -23 -23 -24 -25 -26 -27 -27 -29 -30 -31 -32 -32 -32 -32 -32 -33 -33 -33 -34 -33 -33 -33 -33 -33
-18 -18 -19 -19 -20 -21 -21 -22 -22 -22 -22 -22 -22 -23 -23 -24 -25 -26 -26 -28 -29 -30 -31 -32 -32 -32 -32 -32 -33 -34 -34 -34 -34 -34 -33 -33 -33 -32
-18 -19 -19 -20 -20 -21 -22 -22 -22 -22 -23 -23 -23 -23 -24 -25 -27 -28 -28 -30 -31 -32 -32 -32 -33 -33 -33 -33 -34 -34 -34 -34 -34 -34 -34 -33 -33 -33
-19 -19 -20 -20 -21 -22 -22 -22 -22 -23 -23 -23 -24 -24 -25 -27 -28 -30 -31 -32 -32 -33 -33 -33 -33 -33 -33 -34 -34 -34 -34 -34 -34 -34 -34 -33 -33 -33
-19 -20 -20 -21 -22 -22 -22 -22 -22 -23 -23 -24 -25 -26 -27 -29 -30 -32 -32 -33 -33 -33 -33 -33 -34 -33 -34 -34 -34 -34 -35 -34 -34 -34 -34 -33 -33 -33
-20 -20 -21 -22 -22 -22 -22 -22 -22 -23 -24 -25 -26 -27 -28 -30 -31 -32 -33 -33 -33 -33 -33 -33 -34 -34 -34 -35 -35 -35 -35 -35 -34 -34 -34 -33 -33 -33
-20 -21 -21 -22 -22 -22 -22 -22 -23 -23 -24 -25 -26 -27 -29 -30 -31 -32 -33 -33 -33 -34 -34 -33 -34 -34 -35 -35 -35 -35 -35 -35 -34 -34 -34 -33 -33 -33
-21 -21 -22 -22 -22 -23 -23 -23 -23 -24 -25 -26 -27 -29 -31 -31 -31 -32 -33 -34 -34 -34 -34 -34 -34 -34 -35 -35 -35 -35 -35 -35 -35 -34 -34 -33 -33 -33
-21 -21 -22 -22 -22 -23 -23 -24 -24 -25 -26 -27 -28 -30 -31 -31 -32 -33 -34 -34 -34 -34 -35 -35 -35 -35 -35 -36 -36 -35 -35 -35 -35 -34 -34 -34 -33 -33
-21 -22 -22 -22 -23 -23 -24 -25 -25 -26 -27 -28 -29 -30 -31 -32 -32 -34 -35 -35 -36 -36 -36 -35 -35 -35 -35 -36 -36 -36 -35 -35 -35 -34 -34 -34 -34 -34
-21 -22 -22 -23 -23 -24 -25 -25 -26 -27 -29 -30 -30 -31 -32 -32 -34 -35 -35 -35 -36 -36 -36 -36 -36 -36 -36 -36 -36 -36 -35 -35 -35 -35 -35 -35 -34 -34
-22 -22 -23 -24 -24 -25 -26 -27 -28 -29 -30 -30 -31 -31 -32 -33 -34 -35 -35 -36 -36 -36 -36 -36 -36 -36 -36 -36 -36 -36 -36 -35 -35 -35 -35 -35 -35 -35
-23 -23 -24 -25 -25 -26 -27 -28 -29 -30 -31 -31 -31 -32 -33 -34 -34 -35 -36 -36 -36 -36 -36 -36 -36 -36 -36 -36 -36 -36 -36 -36 -35 -35 -35 -36 -36 -36
-24 -24 -25 -25 -26 -27 -28 -29 -31 -32 -32 -32 -32 -33 -34 -34 -35 -36 -37 -37 -37 -37 -37 -37 -37 -37 -36 -36 -36 -36 -36 -36 -36 -36 -36 -36 -36 -36
-25 -25 -26 -27 -28 -29 -30 -31 -32 -32 -32 -32 -33 -34 -35 -35 -36 -37 -37 -37 -37 -37 -37 -37 -37 -37 -37 -37 -36 -36 -36 -36 -36 -36 -36 -36 -36 -36
-26 -27 -28 -29 -30 -31 -31 -32 -33 -33 -33 -33 -34 -35 -36 -36 -37 -37 -37 -37 -37 -37 -37 -37 -37 -37 -37 -37 -36 -36 -36 -36 -36 -36 -36 -36 -37 -36
-28 -29 -30 -31 -31 -32 -32 -33 -33 -33 -34 -35 -36 -36 -37 -37 -37 -38 -38 -37 -37 -37 -37 -37 -37 -37 -37 -37 -37 -37 -37 -36 -36 -36 -36 -36 -37 -36
-30 -30 -31 -32 -32 -33 -33 -34 -34 -34 -35 -36 -37 -38 -38 -38 -38 -38 -38 -37 -38 -37 -37 -38 -37 -37 -37 -37 -37 -37 -37 -37 -36 -36 -36 -36 -37 -36
-31 -32 -32 -33 -33 -34 -34 -34 -34 -36 -36 -37 -37 -38 -38 -38 -38 -38 -38 -38 -38 -38 -38 -38 -37 -37 -37 -37 -37 -37 -37 -37 -37 -36 -36 -36 -36 -36
-32 -33 -33 -33 -34 -34 -35 -35 -36 -36 -37 -37 -38 -38 -38 -39 -39 -39 -38 -38 -38 -38 -38 -38 -37 -37 -37 -37 -37 -37 -37 -37 -37 -37 -36 -37 -36 -36
Height
5707 5701 5694 5688 5682 5673 5667 5660 5654 5649 5644 5635 5623 5613 5606 5597 5591 5582 5576 5568 5559 5549 5538 5527 5516 5506 5497 5488 5480 5473 5465 5459 5453 5450 5446 5443 5441 5441
5694 5688 5682 5676 5671 5662 5655 5647 5640 5633 5629 5620 5610 5599 5588 5580 5571 5561 5553 5547 5536 5526 5516 5505 5496 5487 5479 5471 5462 5456 5449 5444 5439 5435 5431 5428 5426 5425
5685 5680 5672 5664 5657 5650 5641 5633 5626 5617 5610 5605 5595 5583 5572 5561 5551 5540 5531 5525 5517 5507 5498 5488 5479 5471 5464 5457 5449 5441 5435 5431 5426 5422 5418 5415 5412 5411
5673 5665 5658 5651 5643 5635 5627 5618 5610 5601 5592 5589 5580 5569 5556 5544 5532 5521 5513 5501 5494 5488 5479 5471 5463 5455 5448 5441 5433 5426 5422 5418 5414 5409 5406 5402 5400 5398
5659 5651 5644 5636 5629 5620 5611 5603 5595 5585 5575 5567 5563 5551 5539 5524 5511 5500 5493 5484 5476 5469 5462 5454 5448 5442 5435 5427 5419 5414 5410 5405 5402 5398 5394 5391 5388 5387
5644 5636 5627 5620 5612 5604 5596 5588 5579 5569 5558 5546 5538 5530 5517 5504 5488 5477 5469 5464 5457 5449 5444 5438 5431 5424 5418 5412 5407 5403 5400 5396 5392 5387 5383 5380 5378 5376
5628 5620 5612 5604 5597 5590 5581 5573 5562 5551 5539 5525 5516 5505 5496 5483 5470 5457 5447 5442 5439 5434 5427 5422 5416 5411 5405 5398 5395 5392 5389 5386 5382 5378 5373 5370 5368 5367
5615 5607 5599 5590 5582 5575 5567 5557 5545 5532 5522 5506 5496 5482 5473 5460 5451 5441 5433 5427 5423 5420 5409 5407 5400 5396 5391 5387 5383 5381 5378 5375 5371 5368 5364 5360 5358 5357
5600 5593 5585 5576 5567 5558 5549 5539 5529 5516 5502 5490 5477 5467 5453 5445 5433 5424 5416 5411 5407 5403 5395 5391 5387 5384 5379 5376 5373 5370 5368 5364 5361 5358 5354 5351 5349 5349
5583 5575 5567 5559 5549 5539 5531 5522 5512 5499 5484 5468 5454 5445 5434 5426 5418 5408 5399 5396 5392 5388 5380 5376 5375 5372 5368 5366 5363 5361 5358 5355 5351 5349 5345 5343 5341 5341
5569 5560 5551 5541 5529 5519 5509 5497 5488 5477 5462 5448 5433 5420 5410 5405 5400 5392 5384 5378 5377 5374 5368 5362 5363 5361 5359 5357 5354 5352 5349 5346 5343 5340 5337 5334 5333 5334
5554 5545 5535 5523 5512 5498 5485 5473 5464 5453 5440 5428 5414 5402 5391 5384 5377 5372 5368 5363 5361 5360 5357 5352 5352 5349 5350 5348 5346 5343 5340 5337 5334 5331 5328 5326 5325 5326
5539 5530 5518 5506 5493 5481 5465 5451 5437 5425 5416 5402 5391 5382 5371 5365 5361 5357 5353 5350 5349 5346 5344 5341 5341 5340 5339 5340 5338 5335 5332 5329 5326 5323 5321 5319 5318 5319
5518 5508 5498 5487 5475 5462 5447 5432 5418 5402 5389 5379 5371 5363 5355 5348 5344 5341 5341 5339 5339 5335 5333 5331 5331 5331 5331 5330 5329 5327 5324 5321 5319 5316 5314 5313 5312 5312
5497 5486 5476 5464 5453 5442 5426 5410 5395 5382 5371 5362 5353 5345 5338 5333 5329 5328 5328 5328 5327 5326 5324 5323 5323 5323 5323 5323 5322 5319 5317 5314 5312 5310 5308 5307 5306 5306
5476 5466 5454 5443 5431 5418 5406 5391 5376 5363 5352 5344 5336 5329 5324 5320 5318 5318 5317 5317 5316 5316 5314 5314 5315 5316 5316 5315 5314 5312 5309 5307 5305 5303 5303 5302 5302 5302
5456 5445 5434 5422 5410 5397 5384 5369 5356 5346 5337 5328 5320 5315 5311 5308 5307 5307 5308 5308 5307 5306 5307 5307 5307 5309 5309 5308 5307 5305 5303 5301 5299 5298 5297 5297 5297 5298
5433 5422 5410 5397 5384 5373 5361 5352 5340 5331 5321 5313 5305 5301 5299 5297 5297 5298 5299 5299 5299 5299 5299 5300 5301 5302 5303 5302 5301 5299 5297 5296 5293 5293 5293 5292 5293 5294
5410 5398 5386 5375 5363 5351 5340 5330 5323 5314 5305 5297 5290 5289 5287 5287 5287 5288 5291 5291 5291 5291 5291 5292 5294 5295 5296 5296 5295 5293 5291 5290 5288 5288 5288 5288 5289 5290
5385 5374 5363 5352 5342 5332 5323 5314 5306 5297 5288 5282 5279 5278 5278 5278 5279 5280 5282 5282 5283 5283 5284 5286 5288 5289 5290 5290 5288 5287 5286 5285 5283 5283 5282 5283 5284 5286
5367 5356 5343 5333 5324 5315 5306 5298 5289 5281 5274 5270 5268 5268 5270 5271 5271 5272 5274 5275 5275 5276 5278 5280 5282 5283 5284 5284 5283 5282 5282 5280 5278 5278 5277 5278 5279 5281
5346 5337 5327 5316 5306 5298 5291 5283 5274 5267 5262 5259 5258 5259 5261 5262 5264 5265 5266 5267 5268 5269 5271 5273 5276 5278 5278 5278 5278 5277 5277 5276 5274 5273 5272 5273 5274 5275
5327 5318 5309 5300 5291 5282 5274 5267 5259 5255 5251 5249 5248 5248 5251 5253 5255 5257 5258 5259 5260 5262 5265 5268 5271 5272 5273 5273 5273 5273 5273 5272 5270 5268 5268 5268 5268 5269
Wind_Speed
54 60 60 63 54 61 73 77 67 75 74 81 79 79 83 84 84 83 83 83 85 85 87 87 85 78 73 65 60 57 60 54 49 47 47 47 47 47
53 52 58 58 69 77 76 71 75 79 83 79 77 80 83 82 83 85 86 85 86 86 84 81 71 64 62 58 57 60 54 48 46 45 47 47 45 43
53 63 68 70 71 72 69 72 78 84 78 75 76 79 81 84 85 87 88 87 85 82 76 70 65 60 57 54 58 55 47 44 44 45 46 45 42 40
59 62 64 66 69 70 71 72 74 75 75 72 74 77 81 84 86 87 87 85 83 75 69 63 59 57 55 56 57 49 44 43 43 43 43 42 39 39
61 63 65 68 69 69 70 69 70 71 74 76 77 80 83 87 88 89 88 84 78 71 64 60 58 55 55 54 50 44 42 42 43 42 40 40 38 35
63 66 67 68 70 70 68 68 70 73 77 82 84 85 87 87 88 86 85 76 70 66 62 60 60 58 56 51 44 41 39 39 39 41 39 38 35 33
65 67 69 70 68 67 69 69 73 76 81 85 88 88 87 85 82 78 77 71 67 64 63 61 58 55 51 46 40 39 37 36 36 36 36 34 32 30
66 67 68 68 67 67 70 73 78 82 85 88 87 87 85 81 77 73 70 68 67 62 62 57 53 50 45 41 38 37 37 36 36 35 33 31 30 28
66 67 68 69 71 75 78 80 82 85 89 87 87 84 81 76 75 71 69 66 62 58 56 53 48 44 40 37 35 36 35 36 35 33 31 30 28 28
66 66 68 70 74 78 81 82 85 88 89 90 89 85 78 72 69 70 68 63 59 55 54 50 44 40 35 33 33 34 35 35 35 32 30 29 27 27
64 67 71 73 76 80 84 87 90 93 91 90 86 80 74 70 67 65 62 58 55 51 48 46 40 34 31 30 31 32 34 32 32 31 28 27 26 25
66 69 73 76 79 84 88 92 95 94 93 88 80 73 69 66 64 61 54 52 48 45 41 42 37 31 27 28 29 31 32 31 30 28 26 26 26 25
70 74 78 81 84 87 91 95 95 94 90 84 74 67 64 61 59 51 47 46 42 42 40 38 32 27 27 25 28 29 30 28 27 26 25 23 23 22
76 79 82 84 88 90 94 96 95 91 85 77 68 60 55 53 49 46 41 40 37 38 35 34 30 26 26 26 26 28 28 27 24 23 22 20 19 20
80 83 85 88 90 92 94 92 90 83 77 70 64 56 50 45 41 39 35 36 33 33 30 29 26 25 24 24 25 26 24 25 23 19 19 16 17 15
82 85 87 89 92 93 91 88 80 74 69 64 60 51 45 38 33 32 31 29 29 27 26 25 22 21 21 23 24 23 23 20 22 17 16 14 14 14
84 87 89 92 92 91 87 80 73 65 63 63 56 46 39 35 32 28 26 28 27 26 24 23 21 20 20 22 22 22 20 20 18 16 13 14 13 14
86 89 91 92 91 87 79 70 63 62 65 61 50 41 34 31 29 27 26 25 26 25 23 22 20 18 18 20 20 20 19 19 17 15 13 16 16 17
88 89 88 87 84 78 72 65 60 63 66 55 42 34 29 26 25 26 26 25 25 22 22 21 18 17 17 18 19 18 17 18 16 14 14 18 18 20
86 85 84 81 77 73 68 63 62 65 58 43 32 27 24 24 25 27 27 24 22 21 21 20 17 16 16 17 17 16 16 17 15 14 14 18 20 22
83 82 80 78 74 70 64 63 64 60 46 35 28 20 25 28 25 22 23 23 22 20 20 19 17 16 16 16 16 15 15 16 15 14 14 17 21 24
82 80 77 74 71 66 63 62 60 48 37 31 28 31 32 28 25 26 27 22 22 21 20 20 16 15 15 15 16 15 14 15 16 13 14 15 20 23
81 79 75 72 68 63 62 61 51 40 33 28 29 37 37 33 28 30 25 24 22 21 21 20 17 15 15 14 14 13 13 14 14 13 13 13 16 22
Wind_Direction
295 293 292 302 297 298 306 305 298 306 302 306 305 305 303 305 306 307 307 306 305 304 304 305 307 306 304 301 299 299 300 296 293 291 289 285 279 273
306 294 291 288 293 298 301 304 299 299 303 305 305 305 306 308 307 306 306 305 305 305 307 308 304 301 302 302 302 303 300 295 295 294 290 288 286 279
289 289 290 295 297 299 300 297 296 300 304 305 307 308 308 307 307 305 305 305 305 306 307 305 303 302 302 302 303 302 297 296 295 294 291 291 287 281
292 295 298 298 299 301 300 300 302 304 305 307 309 309 307 306 305 303 304 305 306 307 304 303 302 303 303 304 305 301 298 298 296 295 292 290 285 278
301 302 302 302 302 302 301 303 304 305 307 310 312 311 309 306 305 305 304 305 305 304 304 303 302 301 302 304 301 297 297 297 298 297 293 290 287 278
305 304 303 302 302 303 303 303 305 308 311 312 313 312 309 306 306 305 303 305 305 305 304 304 303 305 305 301 297 295 295 294 297 298 294 290 286 278
304 303 303 303 303 302 301 304 308 311 313 312 313 310 308 306 304 302 303 304 304 303 303 302 302 303 301 297 295 293 294 295 296 296 293 288 283 277
304 303 303 302 301 302 303 306 309 312 313 312 310 308 307 304 303 300 300 301 301 302 301 302 302 301 297 294 293 293 295 298 299 298 293 288 281 275
306 305 304 303 303 304 306 308 311 312 313 311 308 307 305 304 301 299 298 298 301 301 300 300 300 298 292 291 291 294 297 299 298 298 292 288 280 272
306 306 304 302 304 305 306 308 311 313 312 310 309 308 304 301 299 296 296 296 296 298 297 299 297 295 290 289 290 293 297 299 299 298 292 289 281 272
307 304 303 304 305 307 310 311 313 314 312 311 309 306 303 300 298 295 294 292 294 294 294 294 294 291 286 287 290 293 297 298 297 297 293 288 282 274
305 305 305 307 309 311 312 313 314 313 312 312 309 305 301 299 297 295 293 292 293 292 291 291 289 285 285 287 289 295 297 297 297 296 294 285 278 274
307 306 308 310 311 312 313 313 313 313 313 311 309 306 300 297 294 291 289 291 294 293 291 289 285 282 286 285 290 295 296 297 298 298 292 282 275 272
308 308 309 310 311 312 313 313 313 313 312 311 309 305 298 294 287 283 283 285 287 286 289 281 282 282 283 286 293 295 297 298 300 298 287 280 275 270
308 309 310 311 312 313 313 313 313 312 312 311 310 305 297 291 282 279 282 283 281 283 278 270 271 275 279 286 292 295 298 299 302 289 283 279 271 267
309 310 311 312 312 313 313 314 313 312 311 312 310 304 297 289 280 278 275 277 285 281 275 270 270 273 279 290 294 296 299 300 300 284 282 262 256 218
310 311 311 312 313 315 315 315 313 311 312 314 309 301 293 285 278 273 275 281 284 280 272 266 268 273 283 290 296 299 297 300 294 282 269 249 239 220
311 312 313 314 315 316 315 315 312 312 313 313 304 296 288 280 272 261 270 280 278 277 267 258 260 265 280 288 291 296 297 301 290 279 257 241 239 223
312 314 315 316 316 316 316 314 312 313 314 309 297 289 281 273 265 262 271 275 274 272 261 254 258 270 283 291 294 296 295 302 286 275 256 238 238 226
315 316 316 317 317 317 315 313 313 315 313 303 288 278 272 267 262 266 270 276 269 265 254 250 255 269 283 289 292 296 293 301 292 272 263 242 239 227
315 317 318 317 316 316 314 314 316 315 308 296 277 251 257 265 267 259 267 272 266 259 245 244 251 268 282 287 288 293 293 296 301 272 271 249 239 232
316 317 317 316 315 315 314 315 315 310 302 290 269 244 259 262 254 257 266 273 263 254 240 241 246 266 280 284 285 290 291 297 307 281 269 262 245 239
315 316 315 314 313 312 314 315 311 305 297 287 259 251 249 255 256 257 266 267 255 241 237 239 243 261 275 281 281 284 282 295 304 297 267 269 258 244